Flag for Poland Weather past 2 weeks in Gdynia, Poland

Now
45 °F

Passing clouds.


Feels Like: 38 °F
Forecast: 40 / 47 °F
Wind: 13 mph from Northwest

Location: Gdansk-Rebiechowo

Current Time: Apr 18, 2015 at 6:59:22 PM

Latest Report: Apr 18, 2015 at 6:30 PM


Visibility: N/A

Pressure: 30.09 "Hg

Humidity: 57%

Dew point: 30 °F

Location of GdyniaLocation

Historic Weather in Gdynia — Graph

°F

Gdynia temperature yesterday

Maximum temperature yesterday: 48 °F (at 12:30 PM)
Minimum temperature yesterday: 37 °F (at 4:00 AM)
Average temperature yesterday: 41 °F

Past Weeks' High & Low Weather Summary

 TemperatureHumidityPressure
High68 °F (Apr 11, 2:00 PM)100% (Apr 3, 11:30 PM)30.48 "Hg (Apr 3, 11:30 PM)
Low28 °F (Apr 4, 6:00 AM)19% (Apr 9, 1:30 PM)29.59 "Hg (Apr 15, 10:30 PM)
Average43 °F74%30.06 "Hg
* Reported Apr 3 6:00 PM — Apr 18 6:00 PM, Gdynia, Weather by CustomWeather, © 2015

Note: Actual official high and low records may vary slightly from our data, if they occured in-between our weather recording intervals... More about our weather records

Advertising

Gdynia weather history for previous 24 hours

 ConditionsComfort  
Time TempWeatherWind HumidityBarometerVisibility
6:00 PM
Sat, Apr 18
45 °FScattered clouds.15 mph57%30.09 "HgN/A
5:30 PM45 °FScattered clouds.17 mph57%30.09 "HgN/A
5:00 PM46 °FScattered clouds.18 mph53%30.09 "HgN/A
4:30 PM46 °FScattered clouds.16 mph57%30.09 "HgN/A
4:00 PM45 °FScattered clouds.17 mph61%30.09 "HgN/A
3:30 PM45 °FScattered clouds.16 mph61%30.09 "HgN/A
3:00 PM46 °FScattered clouds.17 mph62%30.09 "HgN/A
2:30 PM45 °FScattered clouds.18 mph61%30.09 "HgN/A
2:00 PM45 °FPartly sunny.17 mph66%30.09 "HgN/A
1:30 PM45 °FSnow flurries. Scattered clouds.15 mph66%30.09 "HgN/A
1:00 PM45 °FPartly sunny.16 mph61%30.09 "HgN/A
12:30 PM45 °FPartly sunny.13 mph61%30.09 "HgN/A
12:00 PM45 °FScattered clouds.16 mph66%30.12 "HgN/A
11:30 AM43 °FPartly sunny.12 mph71%30.12 "HgN/A
11:00 AM43 °FPartly sunny.14 mph71%30.12 "HgN/A
10:30 AM43 °FPartly sunny.13 mph71%30.09 "HgN/A
10:00 AM41 °FPartly sunny.13 mph81%30.09 "HgN/A
9:30 AM39 °FScattered clouds.14 mph87%30.09 "HgN/A
9:00 AM39 °FPartly sunny.16 mph87%30.09 "HgN/A
8:30 AM39 °FPartly sunny.17 mph87%30.07 "HgN/A
8:00 AM37 °FPartly sunny.15 mph93%30.07 "HgN/A
7:30 AM37 °FBroken clouds.13 mph93%30.07 "HgN/A
7:00 AM37 °FPartly sunny.14 mph87%30.07 "HgN/A
6:30 AM36 °FPassing clouds.10 mph100%30.07 "HgN/A
6:00 AM37 °FSprinkles. Passing clouds.13 mph87%30.04 "HgN/A
5:30 AM37 °FPassing clouds.15 mph87%30.04 "HgN/A
5:00 AM37 °FPassing clouds.15 mph87%30.04 "HgN/A
4:30 AM37 °FPassing clouds.12 mph87%30.04 "HgN/A
4:00 AM36 °FSprinkles. Passing clouds.12 mph93%30.04 "HgN/A
3:30 AM37 °FSprinkles. Passing clouds.13 mph87%30.04 "HgN/A
3:00 AM36 °FPassing clouds.9 mph93%30.04 "HgN/A
2:30 AM37 °FRain showers. Partly cloudy.14 mph87%30.04 "Hg5 mi
2:00 AM37 °FPassing clouds.15 mph87%30.01 "HgN/A
1:30 AM37 °FPassing clouds.15 mph87%30.01 "HgN/A
1:00 AM39 °FPassing clouds.16 mph81%30.01 "HgN/A
12:30 AM37 °FPassing clouds.13 mph87%30.01 "HgN/A
12:00 AM37 °FPassing clouds.13 mph87%30.01 "HgN/A
11:00 PM
Fri, Apr 17
37 °FPassing clouds.10 mph87%29.98 "HgN/A
10:30 PM37 °FPartly cloudy.12 mph87%29.98 "HgN/A
10:00 PM37 °FPartly cloudy.10 mph87%29.98 "HgN/A
9:30 PM37 °FPassing clouds.8 mph87%29.98 "HgN/A
9:00 PM37 °FPassing clouds.12 mph87%29.95 "HgN/A
8:30 PM39 °FBroken clouds.12 mph81%29.95 "HgN/A
8:00 PM37 °FScattered clouds.10 mph81%29.95 "HgN/A
7:30 PM39 °FPartly sunny.14 mph81%29.92 "HgN/A
7:00 PM39 °FPartly sunny.14 mph75%29.92 "HgN/A
6:30 PM39 °FPartly sunny.14 mph81%29.92 "HgN/A
6:00 PM41 °FPartly sunny.16 mph76%29.89 "HgN/A
Weather by CustomWeather, © 2015

See weather overviewHow to use our weather pages